Location: Boiro
(42.6475°N, 8.8834°W)
Time: 18:04:32
(UTC+01:00)

Explorer 11/Cluster Stage 4 - Pass Details

Date: 01 December 2021
Orbit: 467 x 1255 km, 28.8° (Epoch: 23 January)

Event Time Altitude Azimuth Distance (km) Brightness Sun altitude
Exits shadow 06:43:39 17° 227° (SW) 2,662 8.9 -21.9°
Maximum altitude 06:48:28 30° 180° (S) 2,077 8.8 -21.0°
Drops below altitude 10° 06:55:17 10° 124° (SE) 3,216 10.7 -19.8°
Sets 06:58:35 0° 114° (ESE) 4,150 11.8 -19.2°
